Location: Friaudour
(46.0460°N, 1.2873°E)
Time: 08:53:01
(UTC+00:00)

Cosmos 1697 Rocket - Pass Details

Date: 14 July 2020
Orbit: 834 x 842 km, 71.0° (Epoch: 14 August)

Event Time Altitude Azimuth Distance (km) Brightness Sun altitude
Rises 02:08:16 0° 332° (NNW) 3,397 6.3 -16.4°
Reaches altitude 10° 02:10:43 10° 330° (NNW) 2,457 5.5 -16.2°
Maximum altitude 02:16:20 73° 247° (WSW) 873 2.6 -15.7°
Drops below altitude 10° 02:21:54 10° 163° (SSE) 2,437 4.7 -15.2°
Enters shadow 02:22:28 - 163° (SSE) 2,651 4.9 -15.1°
